Orbital elements:
P/2005 JY126 = 2012 F4 (Catalina)
Epoch 2013 May 28.0 TT = JDT 2456440.5
T 2013 June 4.43213 TT MPC
q 2.1290405 (2000.0) P Q
n 0.13553700 Peri. 117.81293 +0.80036565 +0.57728080
a 3.7534515 Node 207.86756 -0.59470770 +0.79859791
e 0.4327779 Incl. 20.24484 +0.07574677 +0.17025939
P 7.27
From 246 observations 2005 Apr. 17-2012 Mar. 22